• Join FlightAware (Why Join?)
  • Login
  • US Flag 
04:55AM EDT


 

Airport Tracker/Info


-or-


 

Live Flight TrackerFlight Track Log ✈ SKW6528 ✈ 13-Jun-2013 ✈ KPHX - KLAX

Flight Track Log - Related Links

Times and Time Zones

All times are in EDT time to prevent confusion due to time zone crossing. See the SKW6528 flight status page for this flight to view local times or setup timezone preferences in your user account.

Time Position Orientation Groundspeed Altitude Reporting Facility
EDT Latitude Longitude Course Direction KTS MPH feet Rate Location/Type
08:31PM 33.4167 -112.0667 239° Southwest 177 204 3,300  Level Phoenix TRACON
08:33PM 33.3833 -112.2167 255° West 258 297 6,800 1,860 Climbing Phoenix TRACON
08:34PM 33.3833 -112.3000 270° West 266 306 9,000 2,100 Climbing Phoenix TRACON
08:34PM 33.3864 -112.3183 281° West 269 310 9,300 1,440 Climbing Albuquerque Center
08:35PM 33.3992 -112.4153 279° West 292 336 10,900 1,800 Climbing Albuquerque Center
08:36PM 33.4475 -112.7343 273° West  Level FlightAware Approximate
08:36PM 33.4128 -112.5183 279° West 311 358 13,000  Level Albuquerque Center
08:37PM 33.4278 -112.6356 279° West 321 369 15,000 1,980 Climbing Albuquerque Center
08:38PM 33.4439 -112.7461 280° West 333 383 17,100 2,040 Climbing Albuquerque Center
08:39PM 33.4656 -112.8592 283° West 344 396 19,300 1,800 Climbing Albuquerque Center
08:40PM 33.5058 -112.9672 294° West 354 407 20,900 1,560 Climbing Albuquerque Center
08:41PM 33.5456 -113.0800 293° West 364 419 22,500 1,500 Climbing Albuquerque Center
08:42PM 33.5864 -113.1947 293° West 373 429 24,000 1,560 Climbing Albuquerque Center
08:43PM 33.6342 -113.3292 293° West 384 442 25,800 1,560 Climbing Albuquerque Center
08:44PM 33.6761 -113.4486 293° West 387 445 27,300 1,320 Climbing Albuquerque Center
08:45PM 33.7206 -113.5714 294° West 396 456 28,600 1,260 Climbing Albuquerque Center
08:46PM 33.7628 -113.6950 292° West 398 458 30,000 1,140 Climbing Albuquerque Center
08:47PM 33.8064 -113.8206 293° West 405 466 31,000 960 Climbing Albuquerque Center
08:48PM 33.8600 -113.9750 293° West 415 478 32,000 480 Climbing Albuquerque Center
08:50PM 33.9047 -114.1056 292° West 420 483 32,000  Level Albuquerque Center
08:51PM 33.9528 -114.2453 293° West 428 493 32,000  Level Albuquerque Center
08:52PM 33.9661 -114.3839 277° West 417 480 32,000  Level Albuquerque Center
08:53PM 33.9836 -114.5194 279° West 412 474 32,000  Level Albuquerque Center
08:54PM 34.0031 -114.6892 278° West 411 473 32,000  Level Los Angeles Center
08:55PM 34.0167 -114.8244 277° West 409 471 32,000  Level Los Angeles Center
08:56PM 34.0306 -114.9600 277° West 410 472 32,000  Level Los Angeles Center
08:57PM 34.0453 -115.0972 277° West 413 475 32,000  Level Los Angeles Center
08:58PM 34.0628 -115.2617 277° West 414 476 32,000 -180 Level Los Angeles Center
08:59PM 34.0764 -115.3978 277° West 413 475 31,700 -780 Descending Los Angeles Center
09:00PM 34.0900 -115.5386 277° West 421 484 30,500 -1,200 Descending Los Angeles Center
09:01PM 34.1047 -115.6842 277° West 437 503 29,300 -1,200 Descending Los Angeles Center
09:02PM 34.1039 -115.8267 270° West 427 491 28,100 -1,200 Descending Los Angeles Center
09:03PM 34.0847 -115.9625 260° West 415 478 26,900 -1,260 Descending Los Angeles Center
09:04PM 34.0594 -116.1244 259° West 412 474 25,500 -1,260 Descending Los Angeles Center
09:05PM 34.0394 -116.2578 260° West 407 468 24,300 -1,260 Descending Los Angeles Center
09:06PM 34.0194 -116.3906 260° West 405 466 22,900 -1,440 Descending Los Angeles Center
09:07PM 34.0022 -116.5203 261° West 397 457 21,400 -1,500 Descending Los Angeles Center
09:08PM 33.9925 -116.6492 265° West 391 450 19,900 -1,500 Descending Los Angeles Center
09:09PM 33.9817 -116.7756 264° West 384 442 18,400 -1,380 Descending Los Angeles Center
09:10PM 33.9697 -116.9222 264° West 370 426 17,100 -720 Descending Los Angeles Center
09:11PM 33.9597 -117.0378 264° West 353 406 17,000 -180 Descending Los Angeles Center
09:12PM 33.9508 -117.1494 265° West 340 391 16,800 -540 Descending Los Angeles Center
09:13PM 33.9422 -117.2603 265° West 303 349 15,900 -1,020 Descending Los Angeles Center
09:15PM 33.9333 -117.3667 264° West 303 349 14,700 -1,140 Descending Southern California TRACON
09:16PM 33.9667 -117.4667 292° West 296 341 13,600 -1,200 Descending Southern California TRACON
09:17PM 34.0000 -117.5500 296° West 295 339 12,300 -1,440 Descending Southern California TRACON
09:18PM 34.0167 -117.6500 281° West 324 373 10,800 -1,440 Descending Southern California TRACON
09:19PM 34.0000 -117.7500 259° West 262 302 9,500 -1,260 Descending Southern California TRACON
09:20PM 34.0000 -117.8167 270° West 237 273 8,300 -1,200 Descending Southern California TRACON
09:21PM 33.9833 -117.9000 256° West 248 285 7,100 -1,140 Descending Southern California TRACON
09:22PM 33.9833 -117.9833 270° West 242 278 6,100 -900 Descending Southern California TRACON
09:23PM 33.9667 -118.0667 256° West 237 273 5,300 -1,140 Descending Southern California TRACON
09:24PM 33.9667 -118.1500 270° West 228 262 3,800 -1,200 Descending Southern California TRACON
09:25PM 33.9500 -118.2167 253° West 192 221 2,900 -960 Descending Southern California TRACON
09:26PM 33.9500 -118.2667 270° West 173 199 2,000 -900 Descending Southern California TRACON